Location: Haliburton Scout Reserve
(45.0900°N, 78.3200°W)
Time: 00:42:40
(UTC-04:00)

YUBILEINY - Visible Passes

Search period start: 15 September 2024 00:00
Search period end: 25 September 2024 00:00
Orbit: 1478 x 1508 km, 82.5° (Epoch: 14 September)

Date Brightness Start Highest point End Pass type
(mag) Time Alt. Az. Time Alt. Az. Time Alt. Az.
15 Sep ? 03:07:56 25° SE 03:12:26 40° E 03:20:26 10° NNE visible
15 Sep ? 05:03:53 25° SW 05:09:02 50° WNW 05:17:35 10° N visible
16 Sep ? 02:19:17 16° ESE 02:23:29 23° ENE 02:29:49 10° NNE visible
16 Sep ? 04:15:14 39° SSW 04:19:10 83° W 04:28:05 10° N visible
16 Sep ? 06:11:24 10° WSW 06:17:30 20° WNW 06:23:38 10° NNW visible
17 Sep ? 01:32:43 10° E 01:34:55 11° ENE 01:37:07 10° NE visible
17 Sep ? 03:26:33 41° SSE 03:29:39 60° E 03:38:18 10° NNE visible
17 Sep ? 05:22:29 22° WSW 05:26:56 34° WNW 05:34:50 10° N visible
18 Sep ? 02:37:49 29° ESE 02:40:29 34° E 02:48:07 10° NNE visible
18 Sep ? 04:33:46 41° SW 04:36:48 58° WNW 04:45:33 10° N visible
19 Sep ? 01:49:04 16° E 01:51:39 19° ENE 01:57:12 10° NE visible
19 Sep ? 03:45:00 59° S 03:47:04 85° E 03:55:57 10° N visible
19 Sep ? 05:40:56 17° W 05:45:03 24° WNW 05:51:51 10° N visible
20 Sep ? 02:56:13 47° ESE 02:57:39 51° E 03:06:04 10° NNE visible
20 Sep ? 04:52:09 34° WSW 04:54:39 40° WNW 05:02:52 10° N visible
21 Sep ? 02:07:24 28° E 02:08:35 29° E 02:15:44 10° NNE visible
21 Sep ? 04:03:19 61° WSW 04:04:38 68° WNW 04:13:30 10° N visible
21 Sep ? 05:59:15 12° W 06:03:24 16° NW 06:08:26 10° NNW visible
22 Sep ? 01:18:33 15° E 01:19:51 15° ENE 01:24:22 10° NE visible
22 Sep ? 03:14:29 72° ESE 03:14:59 74° E 03:23:49 10° NNE visible
22 Sep ? 05:10:24 25° W 05:12:40 28° WNW 05:20:00 10° N visible
23 Sep ? 02:25:36 43° E 02:25:41 43° E 02:33:48 10° NNE visible
23 Sep ? 04:21:32 46° W 04:22:23 47° WNW 04:30:53 10° N visible
23 Sep ? 06:21:14 10° NW 06:22:00 10° NW 06:22:47 10° NW visible
24 Sep ? 01:36:43 24° ENE 01:36:43 24° ENE 01:43:16 10° NNE visible
24 Sep ? 03:32:39 79° WNW 03:32:39 79° WNW 03:41:24 10° N visible
24 Sep ? 05:28:34 17° WNW 05:30:55 19° WNW 05:36:49 10° NNW visible
